Yeppoon Observation History
Time Wind Speed Temp Pressure Rel. Hum Rain
04/07:00am S 9-14 kts 14.2°c 1023.8 hPa 57% 0.0mm
04/06:30am S 7-11 kts 13.7°c 1023.3 hPa 57% 0.0mm
04/06:00am S 8-11 kts 13.6°c 1023.0 hPa 59% 0.0mm
04/05:30am SSW 7-11 kts 13.5°c 1022.7 hPa 58% 0.0mm
04/05:00am SSW 9-12 kts 13.3°c 1022.5 hPa 59% 0.0mm
04/04:30am SSW 9-14 kts 13.4°c 1022.5 hPa 58% 0.0mm
04/04:00am SSW 10-15 kts 13.4°c 1022.5 hPa 58% 0.0mm
04/03:30am SSW 10-14 kts 13.4°c 1022.5 hPa 59% 0.0mm
04/03:00am SSW 8-11 kts 13.5°c 1022.6 hPa 62% 0.0mm
04/02:30am SSW 8-11 kts 13.5°c 1022.6 hPa 60% 0.0mm
04/02:00am SSW 8-10 kts 13.5°c 1022.7 hPa 58% 0.0mm
04/01:30am SSW 7-9 kts 13.1°c 1022.8 hPa 60% 0.0mm
04/01:00am WSW 5-8 kts 12.5°c 1022.9 hPa 60% 0.0mm
04/12:30am WSW 6-8 kts 12.4°c 1022.8 hPa 59% 0.0mm
04/12:00am WSW 7-8 kts 13.6°c 1022.9 hPa 54% 0.0mm
Time Wind Speed Temp Pressure Rel. Hum Rain
03/11:30pm WSW 6-7 kts 13.6°c 1022.6 hPa 57% 0.0mm
03/11:00pm WSW 6-7 kts 12.7°c 1022.6 hPa 61% 0.0mm
03/10:30pm W 6-7 kts 12.0°c 1022.6 hPa 69% 0.0mm
03/10:00pm W 7-8 kts 14.2°c 1022.7 hPa 57% 0.0mm
03/09:30pm WNW 5-8 kts 13.2°c 1022.6 hPa 65% 0.0mm
03/09:00pm WNW 5-7 kts 12.6°c 1022.7 hPa 73% 0.0mm
03/08:30pm WNW 5-7 kts 12.9°c 1022.4 hPa 76% 0.0mm
03/08:00pm WNW 5-8 kts 13.3°c 1022.0 hPa 79% 0.0mm
03/07:30pm NW 5-6 kts 13.3°c 1021.9 hPa 79% 0.0mm
03/07:00pm NW 4-5 kts 13.7°c 1021.5 hPa 77% 0.0mm
03/06:30pm NW 4-5 kts 14.6°c 1021.1 hPa 74% 0.0mm
03/06:00pm NNW 5-6 kts 15.3°c 1021.0 hPa 71% 0.0mm
03/05:30pm NNE 4-5 kts 17.7°c 1020.6 hPa 54% 0.0mm
03/05:00pm NNE 6-7 kts 18.9°c 1020.4 hPa 54% 0.0mm
03/04:30pm NNE 6-8 kts 19.3°c 1020.1 hPa 53% 0.0mm
03/04:00pm NNE 7-8 kts 19.2°c 1020.1 hPa 50% 0.0mm
03/03:30pm NE 6-7 kts 19.3°c 1019.9 hPa 49% 0.0mm
03/03:00pm ENE 4-6 kts 19.5°c 1019.9 hPa 46% 0.0mm
03/02:30pm ENE 6-7 kts 19.6°c 1020.1 hPa 44% 0.0mm
03/02:00pm ENE 6-7 kts 19.7°c 1020.3 hPa 46% 0.0mm
03/01:30pm ENE 6-8 kts 19.2°c 1020.4 hPa 46% 0.0mm
03/01:00pm NE 7-8 kts 19.1°c 1020.7 hPa 43% 0.0mm
03/12:30pm NE 7-8 kts 19.6°c 1021.3 hPa 47% 0.0mm
03/12:00pm NE 6-8 kts 19.0°c 1021.7 hPa 40% 0.0mm
03/11:30am E 5-7 kts 19.3°c 1022.3 hPa 43% 0.0mm
03/11:00am E 5-6 kts 18.5°c 1022.8 hPa 32% 0.0mm
03/10:30am SW 3-5 kts 18.3°c 1023.1 hPa 35% 0.0mm
03/10:00am SSW 5-8 kts 17.5°c 1023.2 hPa 36% 0.0mm
03/09:30am S 7-10 kts 16.6°c 1023.4 hPa 37% 0.0mm
03/09:00am SSW 7-11 kts 15.5°c 1023.3 hPa 39% 0.0mm
03/08:30am WSW 6-8 kts 13.9°c 1023.4 hPa 51% 0.0mm
03/08:00am W 8-10 kts 11.7°c 1023.2 hPa 60% 0.0mm
03/07:30am W 6-7 kts 9.3°c 1023.1 hPa 71% 0.0mm
03/07:00am WSW 7-8 kts 8.5°c 1022.7 hPa 70% 0.0mm
03/06:30am SW 6-8 kts 8.8°c 1022.3 hPa 67% 0.0mm
03/06:00am W 6-8 kts 8.7°c 1022.0 hPa 70% 0.0mm
03/05:30am W 6-8 kts 8.5°c 1021.8 hPa 69% 0.0mm
03/05:00am W 8-10 kts 8.9°c 1021.4 hPa 66% 0.0mm
03/04:30am W 7-10 kts 9.8°c 1021.2 hPa 60% 0.0mm
03/04:00am WSW 6-7 kts 11.3°c 1021.2 hPa 53% 0.0mm
03/03:30am WSW 4-5 kts 11.4°c 1021.3 hPa 51% 0.0mm
03/03:00am WNW 5-8 kts 12.6°c 1021.2 hPa 47% 0.0mm
03/02:30am W 5-7 kts 13.0°c 1021.2 hPa 43% 0.0mm
03/02:00am W 6-8 kts 12.7°c 1021.2 hPa 47% 0.0mm
03/01:30am W 4-6 kts 11.2°c 1021.4 hPa 60% 0.0mm
03/01:00am WNW 6-8 kts 11.1°c 1021.7 hPa 58% 0.0mm
03/12:30am WNW 5-6 kts 10.8°c 1021.7 hPa 63% 0.0mm
03/12:00am WNW 5-6 kts 10.7°c 1022.0 hPa 65% 0.0mm
Time Wind Speed Temp Pressure Rel. Hum Rain
02/11:30pm WNW 5-7 kts 10.9°c 1022.2 hPa 69% 0.0mm
02/11:00pm WNW 5-7 kts 11.6°c 1022.3 hPa 62% 0.0mm
02/10:30pm W 5-7 kts 12.2°c 1022.1 hPa 63% 0.0mm
02/10:00pm W 6-7 kts 12.6°c 1022.1 hPa 62% 0.0mm
02/09:30pm W 3-7 kts 12.8°c 1022.1 hPa 61% 0.0mm
02/09:00pm W 4-6 kts 13.7°c 1022.0 hPa 60% 0.0mm
02/08:30pm W 7 kts 14.1°c 1021.6 hPa 58% 0.0mm
02/08:00pm W 5-7 kts 15.0°c 1021.3 hPa 58% 0.0mm
02/07:30pm W 4-6 kts 14.5°c 1021.0 hPa 65% 0.0mm
02/07:00pm SW 4-5 kts 16.2°c 1020.6 hPa 58% 0.0mm
02/06:30pm SW 1-4 kts 16.5°c 1020.1 hPa 60% 0.0mm
02/06:00pm SW 5-7 kts 17.8°c 1019.6 hPa 55% 0.0mm
02/05:30pm SSW 4 kts 19.7°c 1019.3 hPa 43% 0.0mm
02/05:00pm SSW 4-6 kts 21.3°c 1019.0 hPa 39% 0.0mm
02/04:30pm SSW 6-8 kts 23.0°c 1018.6 hPa 34% 0.0mm
02/04:00pm SSW 6-8 kts 23.7°c 1018.3 hPa 34% 0.0mm
02/03:30pm SSW 7-11 kts 24.0°c 1018.4 hPa 35% 0.0mm
02/03:00pm ENE 5-7 kts 23.6°c 1018.4 hPa 53% 0.0mm
02/02:30pm ENE 7-9 kts 22.8°c 1018.2 hPa 53% 0.0mm
02/02:00pm E 8-10 kts 22.9°c 1018.4 hPa 51% 0.0mm
02/01:30pm ENE 7-9 kts 22.9°c 1018.4 hPa 51% 0.0mm
02/01:00pm ENE 7-9 kts 22.9°c 1018.6 hPa 49% 0.0mm
02/12:30pm E 7-9 kts 23.6°c 1018.9 hPa 47% 0.0mm
02/12:00pm WSW 6-8 kts 23.9°c 1019.3 hPa 35% 0.0mm
02/11:30am S 5-9 kts 23.9°c 1019.6 hPa 38% 0.0mm
02/11:00am SSW 5-8 kts 23.1°c 1019.9 hPa 41% 0.0mm
02/10:30am SSW 5-8 kts 22.7°c 1020.1 hPa 37% 0.0mm
02/10:00am SSW 6-9 kts 22.2°c 1020.1 hPa 41% 0.0mm
02/09:30am SSW 6-8 kts 21.7°c 1020.2 hPa 46% 0.0mm
02/09:00am SW 5-8 kts 20.7°c 1020.1 hPa 51% 0.0mm
02/08:30am WSW 6-8 kts 19.3°c 1020.0 hPa 61% 0.0mm
02/08:00am WSW 5-7 kts 18.0°c 1020.1 hPa 80% 0.0mm
02/07:30am WSW 5-7 kts 17.5°c 1019.7 hPa 88% 0.0mm
02/07:00am WSW 5-8 kts 17.0°c 1019.3 hPa 93% 0.0mm
02/06:30am WSW 5-6 kts 17.3°c 1018.9 hPa 94% 0.0mm
02/06:00am W 5-7 kts 17.9°c 1018.3 hPa 93% 0.0mm
02/05:30am WSW 6-9 kts 17.5°c 1017.8 hPa 94% 0.0mm
02/05:00am WSW 6-9 kts 16.9°c 1017.5 hPa 93% 0.0mm
02/04:30am NW 3-5 kts 16.5°c 1016.9 hPa 93% 0.0mm
02/04:00am NW 5-6 kts 16.7°c 1016.9 hPa 93% 0.0mm
02/03:30am NW 3-4 kts 16.6°c 1016.8 hPa 93% 0.0mm
02/03:00am NW 5-7 kts 16.8°c 1016.9 hPa 95% 0.0mm
02/02:30am NW 4-5 kts 16.4°c 1017.0 hPa 94% 0.0mm
02/02:00am NW 4-5 kts 16.6°c 1017.1 hPa 94% 0.0mm
02/01:30am NW 4-5 kts 16.8°c 1017.1 hPa 93% 0.0mm
02/01:00am NW 4-5 kts 17.1°c 1017.1 hPa 92% 0.0mm
02/12:30am NW 4-5 kts 17.1°c 1017.2 hPa 91% 0.0mm
02/12:00am NW 4-6 kts 17.1°c 1017.3 hPa 92% 0.0mm